sat.trackr.live / text

‹ back to catalog

STARLINK-1443

NORAD 45660 · 2020-035D

PAYLOAD ACTIVE UNKNOWN

§ Identity

Operator
Country
US
Launch date
2020-06-04
Launch site
AFETR
Launch vehicle
Mass (kg)
RCS (m²)

Purposes: comms

External: N2YO · Heavens-Above · Gunter

§ Orbital elements

Epoch: 2026-09-20T04:33:46.579680Z

Period
93.48 min
Inclination
53.1302°
Eccentricity
0.0004157
Mean motion
15.40421562 rev/d
Perigee alt
442.0 km
Apogee alt
447.7 km
Semi-major
6,823.0 km
B*
6.2170e-4
RAAN
237.0257°
Arg perigee
55.3345°
Mean anomaly
304.8051°
Rev number
34,859

§ Raw data

STARLINK-14431 45660U 20035D   26263.19012245  .00025219  00000+0  62170-3 0  99912 45660  53.1302 237.0257 0004157  55.3345 304.8051 15.40421562348595

JSON: /api/v1/satellites/45660 · /tle

For live sub-satellite position, see the globe view (requires WebGL).

§ Visibility from observer

Set your observer location to see the next 7 days of passes ≥ 10°. The values pass through the URL so the page stays shareable.

No JS? Fill the form by hand. The geolocation button needs JavaScript.